x

8726520 - St. Petersburg, Fl (sapf1) Weather Station

9:30pm - Mon 31st Aug 2015 All times are EDT. -4 hours from GMT.

  • Wind
    7mph, 9mph gusts
  • Sea Temp 87°f
  • Air Temp 83°f
  • Sea Pressure 1017.9mb
  • 8726520 - St. Petersburg, Fl
  • 8726520 - St. Petersburg, Fl

More Historic Weather Station data

Upgrade to MSW Pro to gain access to the past 30 days of data for over 8000 Wavebouys and Weather Stations around the globe.

Join Pro

Comparision Forecast

View Surf forecast
   
Mon 08/31 9:30pm 7 9 mph 1017.9mb 87f 83f
9:24pm 6 7 mph 1018.1mb 87f 82f
9:18pm 2 5 mph 1018mb 87f -
9:12pm 3 6 mph 1018mb 87f -
9:06pm 3 5 mph 1018mb 87f -
9:00pm 3 6 mph 1017.8mb 87f 83f
8:54pm 2 7 mph 1017.6mb 87f 83f
8:48pm 6 9 mph 1017.7mb 87f 83f
8:42pm 8 10 mph 1017.8mb 87f 83f
8:36pm 7 9 mph 1017.8mb 87f 83f
8:30pm 6 7 mph 1017.8mb 87f 83f
8:24pm 5 7 mph 1017.7mb 87f 83f
8:18pm 6 7 mph 1017.5mb 87f 82f
8:12pm 6 9 mph 1017.4mb 87f 83f
8:06pm 8 9 mph 1017.2mb 87f 83f
8:00pm 8 15 mph 1017mb 87f 82f
7:54pm 14 15 mph 1017mb 87f 82f
7:48pm 9 11 mph 1017mb 87f 83f
7:42pm 8 10 mph 1017mb 87f 83f
7:36pm 7 9 mph 1017.1mb 87f 83f
7:00pm 8 9 mph 1017mb 87f 84f
6:42pm 7 9 mph 1016.6mb 87f 85f
6:36pm 7 10 mph 1016.7mb 87f 85f
6:30pm 8 9 mph 1016.7mb 87f 85f
6:24pm 8 10 mph 1016.7mb 87f 85f
6:18pm 8 10 mph 1016.6mb 87f 85f
6:12pm 7 8 mph 1016.6mb 87f 85f
6:06pm 6 8 mph 1016.6mb 87f 85f
6:00pm 8 10 mph 1016.6mb 87f 85f
5:54pm 9 11 mph 1016.7mb 87f 85f
5:48pm 9 11 mph 1016.6mb 87f 85f
5:42pm 9 10 mph 1016.6mb 87f 85f
5:36pm 7 8 mph 1016.6mb 87f 85f
5:30pm 7 9 mph 1016.6mb 87f 86f
5:24pm 8 9 mph 1016.6mb 87f 85f
5:18pm 6 7 mph 1016.5mb 87f 85f
5:12pm 2 7 mph 1016.4mb 87f 85f
5:06pm 6 7 mph 1016.4mb 87f 85f
5:00pm 5 6 mph 1016.4mb 87f 85f
4:54pm 5 6 mph 1016.5mb 87f 85f
4:48pm 5 6 mph 1016.6mb 87f 85f
4:42pm 6 8 mph 1016.6mb 87f 85f
4:36pm 7 9 mph 1016.6mb 87f 85f
4:30pm 7 8 mph 1016.8mb 87f 85f
4:24pm 6 7 mph 1016.7mb 87f 85f
4:18pm 6 9 mph 1016.8mb 87f 84f
4:12pm 8
mph
1016.8mb 87f 84f
4:06pm 7 9 mph 1016.9mb 87f 84f
4:00pm 5 7 mph 1016.9mb 87f 85f
3:54pm 5 10 mph 1016.9mb 87f 85f
3:48pm 5 10 mph 1017mb 87f 85f
3:42pm  -  2 mph 1017mb 87f 85f
3:36pm  -  1 mph 1017mb 87f 87f
3:30pm  -  1 mph 1017mb 87f 86f
3:24pm 2 3 mph 1017mb 87f 85f
3:18pm 2
mph
1017mb 87f 84f
3:12pm 1 2 mph 1017.1mb 87f 84f
3:06pm 2 3 mph 1017.1mb 87f 84f
3:00pm 1 3 mph 1017.3mb 87f 84f
2:54pm 3 5 mph 1017.4mb 87f 83f
2:48pm 5 6 mph 1017.5mb 87f 83f
2:42pm 5 6 mph 1017.6mb 87f 82f
2:36pm 5 6 mph 1017.5mb 87f 82f
2:30pm 5 6 mph 1017.4mb 87f 81f
2:24pm 5 6 mph 1017.4mb 87f 81f
2:18pm 6 7 mph 1017.4mb 87f 80f
2:12pm 6 8 mph 1017.5mb 87f 80f
2:06pm 7 10 mph 1017.6mb 87f 80f
2:00pm 8 9 mph 1017.8mb 87f 80f
1:54pm 7 8 mph 1017.8mb 87f 80f
1:48pm 8 9 mph 1017.8mb 87f 80f
1:42pm 8 9 mph 1017.8mb 87f 80f
1:36pm 7 9 mph 1018mb 87f 80f
1:30pm 7 10 mph 1018.1mb 87f 80f
1:24pm 7 10 mph 1018.1mb 87f 80f
1:18pm 5 10 mph 1018.2mb 87f 80f
1:12pm 9 10 mph 1018.1mb 87f 80f
1:06pm 7 8 mph 1018mb 87f 82f
1:00pm 5 6 mph 1018mb 87f 82f
12:54pm 5 11 mph 1018.1mb 87f 81f
12:48pm 5 6 mph 1018.2mb 87f 84f
12:42pm 5 8 mph 1018mb 87f 85f
12:36pm 5 7 mph 1018.1mb 87f 85f
12:30pm 3 7 mph 1018.1mb 87f 84f
12:24pm 5 7 mph 1018.2mb 87f 84f
12:18pm 2 6 mph 1018.2mb 87f 84f
12:12pm 3 6 mph 1018.3mb 87f 84f
12:06pm 2 5 mph 1018.3mb 87f 85f
12:00pm 3 5 mph 1018.4mb 87f 84f
Fri 08/28 1:30pm 3
mph
1017.4mb 89f 85f
1:24pm 2 5 mph 1017.4mb 89f 85f
1:18pm 2 5 mph 1017.4mb 89f 85f
1:12pm 2 5 mph 1017.4mb 89f 85f
1:06pm 2 5 mph 1017.4mb 89f 85f
1:00pm 3 6 mph 1017.5mb 89f 84f
12:54pm 5 6 mph 1017.5mb 89f 84f
12:48pm 3 5 mph 1017.4mb 89f 85f
12:42pm 2 5 mph 1017.4mb 89f 85f
12:36pm 2 6 mph 1017.4mb 89f 84f
12:30pm 3 7 mph 1017.4mb 89f 84f
12:24pm 5 7 mph 1017.5mb 89f 84f
12:18pm 7 8 mph 1017.6mb 89f 84f
12:12pm 6 8 mph 1017.7mb 89f 84f
12:06pm 6 8 mph 1017.7mb 89f 84f
12:00pm 6 7 mph 1017.8mb 89f 84f
11:54am 5 8 mph 1017.9mb 89f 84f
11:48am 6 8 mph 1017.9mb 89f 84f
11:42am 6 7 mph 1018mb 89f 83f
11:36am 6 7 mph 1018mb 89f 83f
11:30am 6 7 mph 1018mb 89f 83f
11:24am 6 7 mph 1017.9mb 89f 83f
11:18am 7 8 mph 1018.1mb 89f 83f
11:12am 5 8 mph 1018.2mb 89f 83f
11:06am 6 8 mph 1018.1mb 89f 83f
11:00am 5 6 mph 1017.8mb 89f 83f
10:54am 5 7 mph 1017.7mb 89f 84f
10:48am 5 6 mph 1017.7mb 89f 84f
10:42am 3 6 mph 1017.7mb 89f 84f
10:36am 5 6 mph 1017.7mb 89f 83f
10:30am 3 6 mph 1017.5mb 89f 84f
10:24am 3 6 mph 1017.4mb 89f 84f
10:18am 5 6 mph 1017.3mb 89f 83f
10:12am 6 8 mph 1017.4mb 89f 83f
10:06am 5 6 mph 1017.3mb 89f 83f
10:00am 6 8 mph 1017.3mb 89f 83f
9:54am 5 8 mph 1017.3mb 89f 83f
9:48am 6 7 mph 1017.2mb 89f 83f
9:42am 5 7 mph 1017.1mb 89f 82f
9:36am 6 7 mph 1017.1mb 89f 82f
9:30am 6 9 mph 1017mb 89f 82f
9:24am 8 9 mph 1016.9mb 89f 81f
9:18am 8 10 mph 1016.9mb 89f 81f
9:12am 7 9 mph 1016.8mb 89f 80f
9:06am 7 10 mph 1016.7mb 89f 81f
9:00am 8 11 mph 1016.6mb 89f 81f
8:54am 10 11 mph 1016.6mb 89f 80f
8:48am 7 10 mph 1016.6mb 89f 81f
8:42am 7 10 mph 1016.5mb 89f 81f
8:36am 9 11 mph 1016.6mb 90f 80f
8:30am 7 8 mph 1016.6mb 90f 80f
8:24am 5 8 mph 1016.4mb 90f 80f
8:18am 8 10 mph 1016.3mb 90f 79f
8:12am 8 10 mph 1016.2mb 90f 80f
8:06am 8 10 mph 1016.1mb 89f 80f
8:00am 8 11 mph 1016mb 89f 80f
7:54am 9 11 mph 1016mb 89f 80f
7:48am 9 10 mph 1016mb 89f 80f
7:42am 6 8 mph 1016mb 89f 80f
7:36am 5 6 mph 1015.9mb 89f 80f
7:30am 5 6 mph 1016mb 89f 79f
7:24am 3 7 mph 1015.9mb 89f 79f
7:18am 6 7 mph 1015.9mb 89f 79f
7:12am 7 10 mph 1015.8mb 89f 79f
7:06am 8 10 mph 1015.7mb 89f 78f
7:00am 9 13 mph 1015.7mb 89f 78f
6:54am 9 11 mph 1015.7mb 89f 78f
6:48am 9 11 mph 1015.6mb 89f 78f
6:42am 9 11 mph 1015.6mb 89f 78f
6:36am 9 14 mph 1015.5mb 89f 78f
6:30am 8 11 mph 1015.5mb 89f 78f
6:24am 7 10 mph 1015.5mb 89f 78f
6:18am 7 10 mph 1015.5mb 89f 78f
6:12am 7 10 mph 1015.6mb 89f 78f
6:06am 8 11 mph 1015.5mb 89f 78f
6:00am 8 11 mph 1015.5mb 89f 78f
5:54am 9 11 mph 1015.5mb 89f 78f
5:48am 8 11 mph 1015.4mb 89f 78f
5:42am 9 13 mph 1015.3mb 89f 78f
5:36am 10 14 mph 1015.3mb 89f 79f
5:30am 11 14 mph 1015.1mb 89f 78f
5:24am 11 14 mph 1015mb 89f 79f
5:18am 13 15 mph 1015.1mb 89f 79f
5:12am 13 14 mph 1015.1mb 90f 79f
5:06am 11 13 mph 1015mb 90f 79f
5:00am 10 14 mph 1015mb 90f 79f
4:54am 10 14 mph 1014.9mb 90f 78f
4:48am 8 13 mph 1015mb 90f 78f
4:42am 9 13 mph 1015.1mb 90f 79f
4:36am 10 14 mph 1015.1mb 90f 79f
4:30am 9 13 mph 1014.9mb 90f 79f
4:24am 8 11 mph 1015.1mb 90f 79f
4:18am 8 11 mph 1014.9mb 90f 79f
4:12am 9 11 mph 1015.1mb 90f 79f
4:06am 9 11 mph 1015mb 90f 79f
4:00am 7 9 mph 1015mb 90f 79f
3:54am 6 8 mph 1014.9mb 90f 79f
3:48am 7 9 mph 1014.8mb 90f 79f
3:42am 7 10 mph 1014.7mb 90f 79f
3:36am 9 11 mph 1014.8mb 90f 79f
3:30am 7 10 mph 1015mb 90f 79f
3:24am 8 11 mph 1014.9mb 90f 79f
3:18am  -  mph - - 79f
3:12am  -  mph - - 79f
3:06am  -  mph - - 79f
3:00am 9 11 mph 1015.2mb 90f 79f
2:54am 9 11 mph 1015.2mb 90f 79f
2:48am 8 11 mph 1015.3mb 90f 79f
2:42am 9 13 mph 1015.4mb 90f 79f
2:36am 10 13 mph 1015.4mb 90f 80f
2:30am 13 14 mph 1015.4mb 90f 80f